{"data":{"norad_id":49451,"epoch":"2026-09-19T23:08:11.580288Z","epoch_age_seconds":87520,"freshness":"FRESH","line1":"1 49451U 21104AV  26262.96402292 -.00001402  00000+0 -31315-4 0  9998","line2":"2 49451  53.1602  54.4332 0001253  82.6287 277.4858 15.33552141268273","mean_motion":15.33552141,"eccentricity":0.0001253,"inclination_deg":53.1602,"raan_deg":54.4332,"arg_perigee_deg":82.6287,"mean_anomaly_deg":277.4858,"bstar":-3.1315e-5,"rev_number":26827,"period_min":93.899643937832,"perigee_km":464.36694361617,"apogee_km":466.08188998722,"semimajor_km":6843.3614168017,"source":"CELESTRAK","updated_at":"2026-09-20T09:00:39.400670Z"}}